Theta_e
332 331 332 331 332 332 332 332 331 332 331 329 328 329 325 324 319 315 316 318 319 322 325 324 328 332 327 326 328 327 327 325 326 328 327 326 324 316 317 316 317 316 315 316 316 315 315 316 318 320 321 321 321 320 318 317 316 316 321 322 320 317 315 314 313 318 320 318 315 313 311 310 309 308
331 330 332 331 331 332 331 330 331 332 332 332 331 330 328 326 322 319 316 317 322 321 325 326 325 328 326 325 324 324 327 322 327 328 328 327 325 314 314 313 312 311 313 312 310 311 313 316 320 321 321 320 320 318 316 315 315 318 321 321 320 317 316 317 318 319 318 315 313 312 311 310 309 308
330 330 330 331 331 332 331 330 331 332 333 332 332 330 329 325 325 324 321 317 322 326 322 324 327 327 327 326 322 321 326 326 326 327 328 328 318 314 314 312 311 312 314 310 310 314 314 314 316 318 319 320 318 316 317 319 318 320 320 319 316 317 317 317 318 318 318 314 312 312 311 311 311 310
331 331 331 331 330 332 332 332 332 332 333 333 331 332 329 328 326 327 323 320 320 328 325 324 327 329 326 324 318 319 323 326 321 327 327 322 315 320 317 312 312 313 312 312 317 321 318 315 317 319 321 320 319 318 319 319 319 320 316 314 315 316 315 315 316 318 318 316 312 312 312 311 311 311
332 330 331 331 331 332 331 331 332 331 332 333 333 330 327 327 331 327 322 321 320 324 327 327 325 327 327 319 320 319 321 323 323 324 323 321 324 324 321 317 311 311 311 311 313 314 311 313 320 321 320 320 319 315 315 315 313 315 315 311 311 311 313 314 314 315 318 318 316 313 313 312 312 313
331 331 330 331 331 332 331 331 331 331 331 331 330 327 327 328 329 328 325 323 322 321 325 325 327 328 329 319 320 319 320 322 322 323 324 325 326 325 323 318 315 309 311 311 311 311 310 311 314 314 311 311 312 311 311 312 311 314 310 306 308 311 314 315 312 310 315 318 318 315 314 313 312 313
331 331 330 330 330 331 331 331 331 331 332 332 329 327 329 326 325 326 325 326 322 322 322 325 323 324 324 322 316 319 321 321 320 319 320 322 325 325 324 322 318 308 308 309 310 309 309 309 311 311 311 310 310 309 309 309 309 309 307 304 307 308 309 309 310 308 311 315 317 316 315 312 312 313
331 330 329 330 330 330 329 331 331 331 329 329 329 328 327 328 326 328 327 326 325 323 322 322 323 325 322 323 316 316 317 319 317 315 315 319 322 322 323 322 320 310 308 308 309 309 309 309 310 310 310 310 309 308 309 308 308 306 307 305 305 306 305 305 305 305 306 309 312 313 313 313 314 315
330 330 329 330 330 329 329 330 331 330 329 329 327 325 327 329 328 328 325 326 327 322 321 321 322 322 323 321 314 314 313 315 318 315 314 318 322 320 319 318 320 310 307 308 309 308 308 308 308 309 308 308 308 307 307 307 306 306 306 305 305 305 304 303 303 302 302 302 303 308 311 310 311 315
331 329 329 329 329 329 329 328 329 328 328 330 328 327 325 325 326 325 324 324 325 325 322 321 319 320 319 316 316 316 314 313 314 314 314 314 313 315 316 316 318 316 313 314 312 307 306 306 307 307 307 307 306 306 306 306 305 305 304 304 304 304 303 303 302 301 301 301 301 301 304 306 308 311
329 330 329 328 329 328 328 329 329 327 328 325 326 327 324 323 325 324 324 324 323 325 321 320 320 318 319 318 316 318 317 315 314 310 308 307 308 313 313 312 315 318 318 315 311 311 311 310 308 306 307 306 306 306 304 305 305 304 303 302 302 302 302 302 301 301 300 299 299 299 299 300 304 307
328 329 330 329 329 328 329 329 327 329 326 324 325 326 326 324 325 325 323 323 322 321 319 317 316 316 316 316 317 318 315 312 309 309 309 306 307 311 312 311 311 315 316 315 316 313 312 309 309 306 305 305 304 303 303 305 305 304 302 301 301 300 300 300 300 300 300 300 299 299 298 298 297 302
328 327 328 329 329 329 329 323 322 323 325 327 325 327 326 324 325 322 322 320 321 320 318 317 318 315 314 312 312 309 308 307 307 309 310 310 310 311 312 311 313 313 313 313 313 313 314 311 313 311 311 307 306 306 306 303 303 301 299 300 300 300 299 299 299 299 299 299 299 298 298 298 298 297
328 329 327 329 329 323 321 318 312 313 316 321 326 327 327 326 323 321 322 321 321 320 317 316 316 313 311 310 313 312 311 313 312 311 312 310 311 310 311 316 319 315 312 310 308 310 311 310 309 308 308 309 309 308 307 305 302 301 300 300 300 299 299 299 299 299 299 299 299 298 298 297 297 296
327 328 327 325 322 317 317 312 304 305 308 311 312 315 318 323 323 322 322 321 319 318 318 320 318 313 311 313 316 314 316 317 316 311 313 311 311 309 309 310 315 321 323 316 315 314 317 316 311 310 308 307 305 303 301 300 300 300 300 299 299 299 299 299 299 298 298 298 298 298 297 297 298 296
328 326 325 324 323 323 319 315 311 305 299 298 298 298 300 308 311 313 320 321 319 319 319 317 317 317 314 315 316 313 314 316 314 315 314 314 311 312 312 311 312 319 322 317 316 315 317 314 310 307 307 305 304 302 300 299 299 299 299 299 299 299 299 298 298 298 298 297 297 297 297 297 296 295
326 327 325 324 326 326 318 320 316 313 308 303 302 303 303 302 305 307 308 311 321 324 321 318 318 321 317 315 316 318 317 319 315 315 315 317 316 317 315 312 313 315 321 316 314 313 314 312 307 305 305 303 302 300 299 300 299 299 299 299 299 298 298 298 298 298 297 297 297 297 297 296 295 295
324 324 323 322 323 325 323 321 319 319 320 321 322 320 317 315 310 303 303 306 308 317 323 321 319 322 323 321 323 323 322 320 319 318 315 316 316 316 314 314 313 314 318 317 315 312 313 313 308 304 303 303 302 301 300 299 299 299 299 299 298 298 298 298 298 298 297 297 297 297 296 295 295 294
325 325 325 325 325 325 325 321 319 321 321 322 317 314 311 308 305 306 311 319 325 325 322 316 314 315 318 317 318 323 323 323 322 321 319 320 318 316 315 314 312 311 313 313 314 309 313 315 310 306 304 304 302 302 299 299 299 299 299 299 298 298 298 297 297 297 297 297 297 297 295 294 294 294
318 323 324 321 320 322 324 313 307 315 322 318 314 312 309 307 305 302 299 297 308 315 313 310 308 305 303 302 306 308 318 322 323 322 321 321 317 313 310 308 308 307 310 310 310 307 304 310 311 308 305 302 300 300 299 298 299 299 299 299 298 298 298 297 297 297 297 297 297 297 296 294 293 293
310 314 323 323 323 321 314 303 302 305 311 317 315 312 309 308 307 305 303 297 296 296 296 295 296 296 297 298 298 299 299 306 318 319 317 314 315 311 306 305 305 304 305 305 307 306 302 305 306 308 304 301 299 300 301 300 299 299 299 299 299 298 298 298 297 297 297 297 297 296 296 295 294 294
306 304 305 313 313 311 308 301 301 303 312 316 314 311 309 307 306 306 307 305 301 296 296 297 298 298 298 299 299 299 300 301 308 317 314 314 313 311 308 303 301 302 302 302 306 308 304 306 305 303 305 303 302 301 301 300 300 298 298 298 299 298 298 298 298 297 297 297 297 297 296 294 294 293
305 303 300 299 299 302 298 297 301 303 311 314 312 311 309 308 307 308 309 308 310 312 313 313 312 308 306 310 308 306 301 302 306 309 310 313 314 309 307 303 301 299 300 302 304 306 303 304 303 303 301 300 304 303 302 301 300 299 299 298 298 298 298 298 297 297 297 297 297 297 296 294 295 297
302 301 300 298 294 293 293 294 296 301 305 314 314 312 309 307 306 311 314 313 311 310 309 309 309 308 308 307 307 307 307 308 307 306 308 306 309 312 308 305 302 299 299 301 301 305 303 301 297 300 299 295 293 301 302 301 300 302 301 300 298 296 297 296 295 296 297 297 296 296 296 295 294 298
299 299 298 298 294 294 294 294 295 296 298 303 314 314 313 312 310 308 310 309 305 309 308 307 306 306 305 305 305 305 305 305 305 305 304 305 305 306 302 300 300 298 300 301 299 303 300 299 297 300 300 298 299 298 298 299 300 299 300 300 299 296 297 299 297 295 295 295 294 294 294 295 295 296
297 297 297 296 294 292 293 294 295 295 296 297 304 301 296 297 300 310 310 310 309 308 306 304 303 303 303 303 303 303 303 304 304 304 303 302 303 303 304 302 300 298 299 303 299 303 301 298 298 299 300 298 298 296 296 297 299 298 297 298 299 299 298 298 299 297 296 296 295 294 295 295 296 295
296 297 297 297 294 292 292 293 293 295 296 298 297 295 296 296 297 301 305 304 304 304 303 303 302 301 302 301 301 301 302 303 303 303 303 302 302 301 301 302 303 302 302 303 304 303 302 299 299 298 297 298 295 296 295 294 295 296 295 295 297 297 298 296 295 296 297 297 299 295 293 293 294 294
296 296 296 295 293 293 293 293 293 293 294 296 295 296 296 298 299 306 305 304 303 300 300 300 300 300 301 301 301 300 301 302 302 302 302 302 302 301 301 301 300 301 301 301 302 302 301 300 300 299 299 297 295 293 292 294 293 293 292 296 295 295 296 296 295 295 296 295 296 295 296 296 295 294
295 293 292 293 293 294 294 294 295 295 294 294 294 296 297 302 305 305 304 303 302 300 299 299 299 300 300 301 301 301 301 301 301 300 301 301 301 300 300 300 299 300 302 302 300 300 300 300 299 299 299 298 295 295 293 292 293 293 292 293 291 293 295 297 296 293 294 294 294 294 294 295 296 296
293 293 293 294 294 295 296 298 298 297 297 295 295 296 299 303 303 303 303 302 301 300 299 299 299 300 300 300 300 301 302 301 299 300 299 299 298 299 297 297 297 298 299 299 299 299 299 299 299 298 297 296 295 294 293 292 292 293 293 293 292 294 295 294 294 295 293 293 293 293 295 295 297 295
297 295 295 295 294 294 293 294 295 296 296 298 300 301 300 300 301 301 301 301 300 299 299 298 299 299 300 302 301 300 300 299 300 301 299 299 298 298 297 296 295 296 298 298 298 298 299 299 299 298 295 294 294 294 294 295 292 291 292 293 293 289 291 293 293 293 293 293 294 294 294 294 296 296
298 297 294 295 296 296 296 297 297 297 297 296 296 299 300 300 299 299 298 298 300 300 299 299 299 300 301 298 298 298 298 298 299 300 299 299 298 297 298 295 294 295 297 298 298 298 297 298 298 298 297 294 293 293 294 293 292 291 291 292 292 293 293 292 292 292 293 292 292 291 293 292 293 295
296 295 295 293 294 294 291 292 293 294 294 293 295 296 297 297 298 298 297 297 298 299 299 298 298 297 298 297 297 297 297 297 297 298 298 299 299 298 298 295 294 295 295 296 297 298 298 298 297 297 296 296 296 295 292 288 291 291 290 291 291 291 291 291 291 291 292 291 291 292 291 293 294 295
293 292 291 292 292 292 292 291 291 291 292 291 292 293 292 294 295 295 295 296 295 293 294 296 293 294 292 294 296 295 295 296 296 296 295 296 298 295 293 292 293 294 293 293 294 295 297 297 296 297 298 295 296 294 293 292 289 290 290 290 290 289 290 291 291 291 292 291 290 288 289 289 291 293
291 291 290 291 291 291 292 291 291 291 290 290 290 291 292 293 292 291 294 295 291 291 291 291 291 291 291 291 293 292 292 294 294 295 293 294 294 294 293 291 291 291 292 292 293 295 296 295 296 295 294 292 290 292 295 295 290 291 291 290 289 288 289 291 289 290 291 290 290 287 288 289 290 292
291 291 291 291 291 291 291 290 290 292 292 292 292 291 290 291 291 292 291 293 294 290 290 290 289 289 290 290 289 290 290 290 291 292 289 290 289 289 290 291 291 292 292 292 293 293 294 293 293 292 289 288 285 285 286 294 294 292 288 287 289 288 290 289 289 290 290 288 288 287 287 287 289 291
292 292 294 293 294 293 291 292 292 293 294 293 292 292 292 291 291 293 293 290 292 289 290 289 289 289 289 289 289 288 289 289 289 289 289 291 290 290 288 289 288 291 290 291 292 292 293 291 291 290 287 285 284 283 284 287 290 294 291 287 286 289 287 288 288 286 288 290 288 288 287 287 287 290
292 294 294 294 294 294 293 292 291 291 292 292 293 292 293 294 294 294 294 292 290 289 289 289 288 289 289 289 289 288 289 289 288 288 288 288 288 287 288 287 287 288 290 291 292 292 291 290 289 289 288 285 283 283 284 286 286 288 293 291 286 286 289 286 285 284 286 288 289 289 289 287 289 292
296 294 295 293 294 294 293 292 290 291 294 292 291 292 291 292 292 291 290 290 291 289 289 289 289 288 289 289 288 288 287 287 287 288 288 287 288 288 287 287 286 288 287 288 290 290 289 288 288 289 289 285 284 284 285 284 284 286 289 293 290 285 285 286 284 286 286 284 287 290 288 288 293 291
295 295 295 295 295 295 294 294 293 294 293 293 293 292 291 289 290 290 290 289 289 289 289 288 288 288 288 288 288 288 289 288 288 287 287 286 286 287 287 287 287 286 286 286 287 288 288 288 289 289 289 288 287 287 287 286 286 286 287 288 292 291 285 285 286 286 284 287 288 285 284 284 283 286
297 296 295 295 296 296 294 294 294 294 294 294 293 291 291 290 289 288 289 289 289 288 288 288 288 288 288 288 288 288 287 287 287 286 287 286 286 286 286 286 286 287 286 285 286 287 287 290 290 290 291 289 289 290 287 286 283 284 285 286 291 292 292 292 290 287 285 286 287 284 283 282 283 282
298 296 297 297 297 295 295 295 294 293 293 292 292 290 291 289 288 290 289 289 289 288 288 288 288 288 288 288 287 287 286 286 286 286 286 286 285 286 286 286 285 286 285 285 285 285 289 292 289 287 290 288 287 284 283 283 283 283 284 285 286 290 291 291 291 291 290 287 286 283 282 282 282 281
295 296 295 295 296 296 296 295 294 293 292 292 291 290 290 289 289 289 289 290 289 289 288 288 288 288 288 287 287 287 287 286 286 286 286 287 286 285 285 285 285 286 286 286 286 286 286 290 291 288 287 286 285 285 283 284 284 284 284 284 284 285 286 290 291 290 289 290 289 287 286 285 282 280
296 296 295 295 294 295 295 294 293 293 292 290 290 290 289 289 288 288 288 288 289 289 289 288 288 287 288 288 287 287 287 286 286 286 286 286 285 286 286 285 286 285 285 285 285 285 286 286 286 287 284 284 285 284 283 283 283 284 284 284 284 283 282 285 286 288 288 288 289 289 289 289 288 288
294 294 295 294 293 293 292 293 293 293 291 290 289 289 289 289 289 289 288 288 288 288 288 288 288 288 288 287 287 286 286 288 287 286 286 285 284 285 286 285 285 286 284 284 284 284 285 285 286 285 284 285 285 284 284 284 284 284 284 282 282 283 283 284 283 283 284 284 288 289 289 289 288 288
Wind_Speed
8 8 8 6 5 6 6 5 6 6 6 7 8 9 7 6 8 8 7 8 5 7 9 4 3 2 3 7 9 9 8 11 11 7 7 7 6 7 10 10 10 9 9 9 10 10 10 11 13 14 14 13 11 11 11 10 9 7 6 9 9 9 7 6 6 7 8 9 8 7 7 7 7 6
7 6 6 5 5 5 6 6 5 5 5 6 7 6 6 6 6 6 8 6 7 7 5 3 5 5 5 8 7 7 8 13 12 9 9 8 7 10 11 11 10 10 11 11 11 10 11 12 13 14 14 13 13 11 11 10 8 7 8 11 10 8 6 5 6 8 8 8 7 7 6 6 6 5
8 9 11 8 6 6 7 7 7 6 5 5 5 4 8 7 6 4 5 5 3 4 5 3 5 7 8 8 7 8 9 13 11 8 9 8 11 12 9 12 11 11 12 12 10 11 12 12 12 13 13 12 11 11 9 8 7 8 9 9 10 9 7 6 6 8 9 8 7 7 6 6 6 5
12 11 11 9 8 7 6 6 7 7 5 4 5 4 5 7 8 6 6 7 7 2 5 5 8 9 8 8 8 9 8 11 14 4 8 11 13 8 6 10 12 12 12 12 11 12 11 11 12 12 12 12 11 10 10 10 10 8 8 10 9 9 8 7 6 8 8 8 8 7 7 7 7 6
10 11 11 10 9 7 7 6 7 7 6 5 4 4 4 3 5 6 6 7 6 1 3 6 6 8 8 8 10 10 8 8 7 6 10 11 8 7 6 6 10 12 12 12 11 11 12 12 11 12 13 12 12 12 11 10 10 8 9 10 9 9 8 7 7 6 6 7 7 7 7 7 7 6
9 9 10 9 9 8 8 7 8 7 6 5 5 5 4 2 2 3 3 7 8 7 4 6 6 6 6 7 11 10 9 7 8 9 9 8 8 8 7 6 7 12 12 11 11 11 11 11 11 11 12 12 12 11 10 10 9 8 9 9 8 7 6 7 6 6 5 4 7 7 7 7 7 7
8 7 7 8 7 7 8 8 6 6 6 5 5 5 3 4 4 3 6 4 7 9 6 6 8 8 5 5 11 10 9 8 10 10 9 9 8 8 9 8 7 12 12 13 11 11 11 10 10 11 11 11 11 10 9 9 8 8 8 8 7 7 6 6 6 6 5 5 5 5 6 7 7 7
8 8 8 8 8 8 8 6 5 3 5 5 4 3 4 2 4 1 5 4 8 8 8 6 7 7 10 4 10 10 8 8 9 9 9 9 9 9 9 9 8 10 14 13 12 12 11 11 11 11 10 10 10 9 9 8 8 8 7 6 5 5 4 4 4 4 4 5 6 7 6 6 7 8
7 8 8 8 6 5 6 5 5 4 4 4 3 6 1 2 3 3 5 5 6 8 8 7 5 5 6 8 10 10 9 8 8 10 10 10 9 10 9 8 8 12 13 12 11 11 11 11 11 11 10 10 9 9 8 7 6 5 5 3 2 1 2 2 3 3 4 4 5 7 8 8 9 11
5 5 7 5 4 6 6 7 5 4 4 4 5 6 6 6 5 5 7 3 4 5 8 7 8 10 9 7 9 10 10 9 8 9 10 8 9 10 8 6 6 5 6 6 5 6 8 10 11 10 10 9 9 8 7 6 6 5 5 5 4 2 1 0 1 3 4 5 6 6 7 8 9 11
5 4 5 4 0 2 4 7 7 6 5 6 5 6 7 6 5 4 1 1 3 3 6 6 7 7 6 5 8 10 10 9 6 8 6 5 6 8 10 6 5 6 6 7 10 9 9 9 8 10 10 9 8 7 7 7 7 7 6 5 3 2 1 1 2 4 5 6 6 7 7 8 9 10
6 2 1 3 5 6 8 6 4 5 7 7 6 7 7 7 6 7 5 1 4 4 4 7 5 4 7 5 7 8 9 7 4 7 5 7 7 8 7 9 9 7 7 8 7 6 6 7 8 8 7 8 8 8 7 8 6 6 6 5 4 4 4 3 4 4 5 6 6 7 7 7 8 8
5 3 3 3 7 6 3 8 8 7 8 8 8 7 7 7 5 7 9 6 5 8 5 7 5 4 5 5 7 8 7 7 6 6 5 5 7 7 8 7 9 10 9 6 7 8 8 6 5 5 5 5 6 6 10 9 11 10 10 9 8 8 6 6 5 5 5 5 5 6 6 7 7 7
8 7 5 6 10 11 10 6 9 11 12 12 8 8 7 9 8 9 7 7 5 5 7 7 4 4 6 6 4 5 5 6 6 7 6 7 7 7 5 5 3 4 7 7 6 6 7 6 7 6 6 6 4 5 5 5 7 8 10 10 9 9 8 7 7 6 6 6 6 6 6 6 6 6
5 6 8 5 4 8 9 6 10 11 10 12 12 9 8 11 12 9 7 8 5 5 7 6 0 2 5 5 4 5 6 4 6 7 7 7 7 7 7 4 1 5 4 7 7 6 3 8 8 7 6 6 7 6 7 10 11 11 10 10 9 8 7 6 5 5 5 5 5 5 5 6 6 7
5 7 7 5 3 5 2 7 7 9 11 12 12 12 10 11 15 13 12 10 7 6 7 6 3 0 3 5 5 5 5 6 6 5 4 4 6 5 5 4 4 2 3 8 8 6 4 7 9 8 6 6 6 7 9 11 12 11 11 11 10 9 8 7 6 6 6 5 5 5 5 5 5 6
2 5 8 6 6 5 7 3 5 7 9 13 17 15 14 11 10 14 12 9 9 6 8 7 2 2 3 6 3 3 5 5 7 4 6 6 7 7 7 3 3 3 4 9 7 7 4 6 8 8 5 6 6 7 8 12 12 12 12 11 10 10 9 8 7 6 5 5 5 6 6 7 8 8
4 2 4 6 4 5 6 5 5 9 10 10 8 8 7 7 9 10 8 4 9 8 7 7 3 1 3 6 5 5 4 5 5 8 5 5 7 8 7 5 6 4 5 4 6 6 6 6 8 8 6 6 5 5 8 13 13 12 12 11 11 10 9 8 7 7 6 5 5 5 6 7 7 8
6 5 6 5 3 5 6 6 5 7 9 9 9 8 8 8 6 5 5 5 2 6 8 9 8 6 7 7 7 5 8 8 6 7 8 7 8 8 7 7 5 7 7 6 1 5 5 5 8 8 8 6 5 5 8 11 12 12 12 12 12 11 9 8 7 7 6 4 3 4 7 8 8 9
4 2 6 5 4 2 3 8 7 4 9 11 11 10 9 9 8 8 6 4 9 11 10 10 11 9 10 11 11 9 8 7 7 8 8 8 9 9 8 6 2 5 5 7 4 5 3 6 7 7 7 7 6 5 4 7 10 12 11 12 13 12 10 8 6 7 7 5 3 4 9 9 8 8
8 8 4 4 4 6 7 4 12 10 8 11 11 11 10 9 11 9 7 14 19 20 19 18 18 19 17 17 17 18 17 9 6 9 9 6 6 7 8 5 4 4 3 6 6 2 5 3 7 7 7 8 7 6 5 5 7 9 11 13 14 13 11 9 7 7 7 6 4 3 6 9 9 9
9 11 17 11 7 7 5 7 13 13 9 9 9 10 12 12 12 10 9 8 10 15 18 18 19 19 17 17 18 19 19 19 11 4 7 4 6 5 6 5 3 3 5 4 5 2 4 2 2 5 7 5 4 5 5 6 5 6 4 8 13 14 12 10 6 6 7 5 4 1 2 5 8 5
8 9 11 14 11 9 8 9 8 13 10 10 10 10 11 13 10 6 2 7 11 9 10 10 10 12 11 10 11 13 20 18 14 10 6 2 5 6 7 8 5 5 3 4 5 3 3 4 1 2 5 5 3 4 6 6 5 5 3 4 5 10 12 9 6 5 6 5 2 1 1 0 3 1
10 10 10 12 18 20 17 13 13 12 14 10 7 8 12 13 10 4 2 5 9 11 11 9 9 10 9 10 10 9 10 11 11 10 8 8 3 7 6 6 5 5 2 3 4 0 2 4 3 4 3 3 4 7 5 6 5 5 6 4 5 5 10 10 5 3 6 5 4 4 4 4 5 4
11 10 11 9 14 20 20 19 18 17 16 13 7 6 7 7 9 10 10 9 11 11 11 10 9 9 9 9 9 9 9 8 8 9 10 9 9 7 8 8 8 7 3 4 8 3 3 4 4 4 5 3 1 3 4 4 7 5 4 6 5 3 4 5 4 3 4 3 2 2 3 3 5 5
10 10 10 10 14 19 19 20 22 20 19 16 10 10 12 13 13 11 8 6 5 7 8 9 9 9 9 9 8 8 8 8 8 9 9 10 10 10 8 7 7 6 4 5 9 5 3 4 4 3 3 3 4 3 3 5 6 7 5 6 7 5 5 6 5 2 1 1 1 2 2 1 3 3
8 8 10 11 19 21 21 20 21 18 18 15 12 17 17 16 16 13 8 9 10 9 8 9 10 9 8 8 8 8 8 7 8 8 8 9 10 10 10 9 7 7 5 6 7 7 5 4 4 6 4 2 2 2 2 3 2 4 6 5 8 5 4 7 7 5 5 4 2 4 4 1 2 2
10 11 10 12 20 19 20 21 21 20 16 13 17 17 17 16 13 10 11 11 11 10 10 10 9 8 8 8 8 7 6 7 8 8 7 8 8 8 8 9 9 7 7 6 6 7 6 6 6 4 4 3 2 4 2 3 4 4 5 7 7 6 5 7 6 4 4 3 4 2 1 2 2 2
11 15 18 19 20 19 18 19 18 17 19 20 19 19 18 14 10 10 10 10 10 11 9 8 7 7 6 7 7 7 8 7 7 6 6 7 7 8 8 8 8 8 6 5 6 6 6 6 6 5 4 3 5 5 5 2 3 4 5 6 4 3 3 4 4 5 3 3 2 2 3 4 2 4
18 18 20 20 19 18 16 13 12 11 13 18 19 19 15 10 10 9 9 9 10 9 8 7 7 6 5 6 7 6 6 6 6 5 5 5 6 6 7 7 7 7 7 7 6 6 6 6 6 4 5 7 6 6 5 6 5 3 6 6 2 2 1 2 4 4 5 3 2 3 3 3 0 2
12 16 15 14 16 14 17 17 15 15 14 12 12 11 10 10 9 9 8 8 9 8 8 7 5 4 4 4 5 4 5 5 5 5 5 5 6 6 6 7 6 6 6 5 6 6 5 5 5 6 6 4 6 5 4 4 6 4 5 4 2 2 5 7 6 6 5 6 6 4 3 4 4 1
10 11 11 13 11 11 12 12 11 10 10 11 10 10 9 8 8 10 12 11 8 7 5 5 4 3 4 5 5 5 5 4 4 3 4 4 5 6 5 6 5 5 5 4 4 4 5 4 4 5 5 5 4 4 4 6 6 6 5 6 6 6 6 6 6 5 5 6 5 5 5 5 5 1
10 10 11 11 11 11 10 10 10 10 10 10 10 11 10 9 10 9 8 8 7 5 5 5 5 5 5 5 5 5 5 5 5 5 5 4 3 3 4 5 5 5 5 4 3 5 4 4 4 5 5 5 8 6 5 6 6 6 6 6 6 6 6 5 5 5 4 5 5 4 5 6 6 4
10 10 11 11 10 10 10 10 9 9 9 9 10 9 10 10 9 9 8 8 7 7 7 6 6 7 5 6 6 5 5 5 5 6 5 4 5 5 6 6 6 6 5 5 4 1 3 4 3 4 6 7 6 6 5 5 5 6 6 6 6 6 6 6 6 5 5 4 2 4 3 6 6 6
9 8 9 8 8 7 7 7 7 6 6 5 5 6 6 6 7 5 7 6 6 6 6 6 5 4 5 5 5 5 4 5 6 7 8 7 7 6 6 6 6 5 6 4 3 2 3 3 3 5 4 5 5 5 6 5 3 6 6 6 4 4 5 4 4 5 5 5 5 4 6 5 6 7
8 7 7 6 6 7 6 5 5 6 6 6 6 6 5 5 5 7 5 4 5 5 5 5 5 5 5 4 5 5 5 6 6 6 5 6 5 5 6 5 4 6 5 4 4 6 6 6 6 6 7 3 4 3 3 6 4 3 5 1 3 4 4 4 4 5 6 7 7 6 5 5 7 6
6 6 6 7 6 6 6 6 6 6 6 5 6 5 5 5 4 5 4 5 6 4 4 5 5 5 5 5 5 5 5 5 5 4 4 5 5 5 4 6 5 5 6 4 6 6 6 6 6 5 4 4 5 5 3 1 7 8 3 6 4 4 4 4 6 7 6 5 6 6 5 6 6 4
5 6 6 5 5 5 6 6 6 6 6 6 5 4 3 3 3 4 4 5 5 4 4 5 5 4 4 4 5 5 4 5 5 5 5 4 4 4 4 5 5 5 5 6 7 7 6 6 6 6 6 7 7 4 1 1 1 5 5 7 5 3 3 5 5 4 6 5 5 5 5 6 6 3
4 4 4 3 3 3 4 4 3 3 4 5 5 5 5 5 5 5 5 5 6 5 5 5 5 5 6 6 6 6 5 5 6 6 6 6 4 4 5 6 5 5 5 6 6 7 6 5 4 4 4 4 3 2 0 1 3 1 3 6 5 4 3 4 3 3 3 3 5 5 3 2 7 4
4 4 4 3 3 3 3 3 3 3 4 4 5 4 5 4 4 4 4 5 5 4 4 4 4 5 4 4 5 5 6 6 6 5 5 5 5 5 4 4 4 3 4 4 6 5 5 3 1 1 1 2 1 1 1 2 3 1 1 2 2 5 3 2 1 1 2 2 2 2 5 5 4 5
1 2 3 3 2 2 4 3 2 2 4 5 6 7 6 5 5 4 4 3 4 5 5 4 4 4 3 3 6 6 6 5 5 4 4 4 3 3 4 4 2 3 4 3 5 5 4 3 3 2 1 2 2 3 2 2 3 2 1 2 5 1 4 4 2 2 3 1 1 3 4 4 3 3
2 3 3 2 3 4 4 4 4 4 3 5 5 4 5 4 4 5 6 5 5 4 3 2 1 2 3 5 6 5 5 4 3 3 3 3 3 1 3 3 4 5 5 6 3 1 1 4 2 3 1 1 3 5 4 3 2 3 3 1 1 6 5 4 5 6 2 1 1 2 2 4 3 2
5 4 4 4 4 2 2 3 5 5 4 4 3 2 3 3 1 1 0 0 0 0 1 1 1 2 3 5 5 5 6 4 4 3 2 2 2 4 4 3 4 3 2 5 3 2 2 2 3 2 3 2 2 5 3 1 1 2 1 1 1 2 5 6 9 8 2 2 3 4 3 1 0 2
5 4 5 5 5 6 6 5 5 5 5 4 2 2 3 3 2 2 3 4 2 2 2 0 2 3 3 3 4 4 5 4 3 2 2 3 4 4 4 1 1 3 4 5 3 2 1 3 1 2 3 4 3 3 2 0 3 1 1 0 1 3 4 2 4 5 4 4 8 11 11 8 9 9
6 6 4 4 5 5 5 5 5 5 2 2 3 4 4 3 1 1 3 4 5 5 4 4 3 3 3 3 5 4 3 3 2 4 3 3 3 3 1 3 1 0 4 3 4 4 5 2 1 3 4 1 1 3 4 2 3 2 1 2 2 3 3 1 2 4 5 4 10 14 13 13 12 12
Wind_Direction
208 206 202 194 190 192 196 197 190 200 179 182 194 203 197 175 155 167 189 196 158 191 204 150 202 230 149 110 129 133 144 151 160 143 139 145 142 158 154 150 151 156 156 156 160 149 141 147 144 140 143 145 142 143 145 144 141 141 145 134 125 124 127 132 150 145 145 137 120 114 117 127 129 129
204 199 210 200 203 195 198 204 208 209 209 196 206 185 153 161 157 186 172 177 171 172 168 144 147 209 160 141 141 136 139 163 177 145 145 150 145 158 155 155 157 158 157 158 161 158 154 156 151 149 150 150 148 148 149 149 147 151 157 148 134 132 130 130 139 151 144 126 130 136 145 147 153 161
198 197 201 197 205 193 198 202 205 215 217 215 197 205 140 188 180 200 153 153 201 147 164 154 132 175 172 158 153 135 149 175 185 145 148 139 144 152 156 159 162 165 162 160 159 160 159 159 156 154 154 152 151 152 155 152 154 163 162 140 141 143 144 150 162 169 158 156 160 162 168 174 176 190
193 195 192 192 200 194 192 199 202 202 211 214 205 166 146 163 182 192 162 161 171 156 150 162 146 179 165 171 147 135 157 176 196 140 129 134 141 152 151 163 164 169 163 161 162 161 156 159 160 159 158 157 157 160 162 161 163 166 143 148 155 156 160 165 177 187 180 181 180 181 189 198 202 207
190 199 198 193 198 198 197 201 199 199 197 200 157 156 169 158 166 182 154 153 138 105 163 148 153 177 178 168 145 144 151 161 177 135 129 141 154 150 151 159 169 169 164 164 165 157 155 160 165 163 162 161 163 162 165 165 164 156 150 161 166 167 171 174 183 207 202 193 196 195 201 213 219 219
201 196 203 198 194 198 205 205 203 191 187 191 157 174 175 169 38 308 181 156 154 155 164 147 141 161 206 167 146 150 149 161 134 130 140 156 162 161 154 155 173 174 166 165 164 156 159 166 167 165 164 163 162 162 164 164 163 159 159 167 174 178 181 187 192 207 231 221 206 207 210 217 227 229
194 191 202 204 188 193 206 206 203 183 178 141 164 177 146 98 167 149 260 193 153 154 164 154 146 169 192 226 146 148 155 148 137 141 155 168 174 164 165 165 166 177 170 169 162 162 166 168 169 166 167 166 163 163 162 162 162 166 166 173 182 185 195 204 208 215 233 251 250 235 233 234 236 236
199 193 197 205 195 195 201 195 193 160 144 163 170 139 65 130 152 339 237 188 155 158 151 179 159 175 177 200 143 145 159 159 147 158 167 176 181 160 171 170 168 179 175 168 167 168 170 169 170 169 168 166 163 161 162 161 168 171 170 172 184 198 208 229 248 266 278 289 300 303 296 274 256 251
210 200 203 201 195 189 192 190 182 156 160 144 126 71 98 135 134 188 225 202 143 155 159 161 151 135 190 191 144 154 159 175 168 162 177 181 182 164 168 163 163 165 173 167 170 171 170 171 171 169 167 163 161 159 159 160 158 150 149 157 152 76 17 352 338 326 312 304 298 294 291 294 292 282
198 198 206 209 192 201 190 194 176 158 160 115 111 129 157 166 144 202 223 212 150 155 164 155 141 186 200 157 153 161 164 172 180 169 182 180 152 152 145 135 133 139 164 164 172 172 170 174 171 168 165 161 157 152 149 139 115 105 95 90 94 103 112 230 279 283 282 280 279 276 277 279 277 278
218 204 190 193 71 329 252 206 170 159 128 113 166 179 163 175 170 158 230 183 177 176 163 162 175 185 172 153 156 166 166 178 181 155 159 141 132 113 133 130 141 160 169 178 170 171 177 169 175 174 167 157 134 121 112 102 103 106 109 116 119 119 136 286 289 289 286 284 281 280 280 281 285 286
211 185 147 128 170 193 213 193 153 143 147 174 162 174 178 180 173 134 130 352 257 205 182 161 195 178 169 171 166 170 155 173 182 147 144 146 142 137 146 153 156 175 166 166 173 174 175 165 169 148 112 105 116 124 117 105 109 107 113 97 78 57 36 8 344 323 311 301 293 288 286 283 282 285
238 198 215 200 216 174 174 205 183 170 166 165 166 178 169 169 139 109 140 155 171 225 188 157 185 177 149 160 141 139 149 167 177 152 143 137 149 151 145 170 170 161 169 168 153 170 175 160 149 134 148 134 139 134 111 100 91 92 90 89 85 79 67 51 34 11 349 336 322 316 311 306 303 300
192 181 161 232 200 143 179 211 155 165 168 176 173 161 158 143 147 155 165 155 184 147 137 156 192 178 152 169 156 146 148 161 152 146 145 138 152 146 169 112 83 155 164 151 149 143 163 152 146 145 125 145 133 112 110 108 115 105 99 91 83 75 64 54 41 26 12 2 352 343 336 330 325 319
154 125 134 166 117 116 162 179 156 161 167 178 170 153 141 157 160 157 158 165 173 155 145 141 44 163 153 170 155 146 151 141 141 161 155 149 146 157 155 142 143 16 77 109 104 76 92 111 102 92 98 107 100 103 114 119 111 107 104 103 100 96 93 83 73 52 41 32 20 8 358 350 343 338
142 132 131 133 123 123 161 181 128 85 70 68 82 91 91 136 160 168 170 161 162 169 144 142 169 18 163 163 140 144 139 124 113 109 112 130 151 131 117 125 105 0 61 104 99 95 69 92 104 101 108 116 113 120 131 127 124 125 128 127 125 118 107 97 79 69 55 46 42 35 30 21 12 2
137 131 130 129 151 145 158 160 107 104 92 97 98 88 79 66 131 172 181 156 158 149 136 126 158 238 184 143 145 144 144 118 120 109 65 61 85 105 105 90 90 41 83 96 106 121 136 116 107 100 77 91 112 122 133 138 141 141 135 128 123 119 112 103 95 81 64 51 45 39 36 32 29 26
23 24 118 141 167 131 141 123 143 125 122 119 106 85 73 78 48 29 36 71 115 124 129 132 144 43 75 68 50 52 77 98 96 100 112 107 89 86 95 97 85 56 35 97 132 110 135 124 111 108 116 127 135 141 160 157 148 141 139 135 125 116 109 107 103 90 74 61 50 53 51 49 55 53
171 178 164 135 131 131 145 145 148 145 126 106 94 86 80 67 47 39 47 88 154 108 89 91 81 48 55 73 52 50 77 93 101 111 115 109 100 90 72 56 56 49 26 19 114 115 135 121 115 134 144 152 134 150 174 169 154 149 146 139 130 123 121 118 111 103 90 80 81 95 82 76 75 78
11 68 127 115 72 25 45 130 159 166 114 105 104 98 94 80 73 57 24 352 74 81 95 98 96 82 65 69 69 46 55 69 87 100 106 98 100 100 99 107 22 64 24 24 50 104 113 141 138 143 140 135 143 162 165 205 169 157 154 144 133 128 123 115 115 118 115 105 92 94 98 90 83 88
29 32 60 89 132 125 83 126 132 113 110 116 114 110 99 93 86 79 51 65 84 92 94 94 93 89 76 62 57 57 53 57 91 104 97 117 138 137 124 120 94 55 40 26 15 71 103 128 135 140 148 158 161 168 168 186 202 177 166 147 136 132 130 132 140 130 116 108 93 94 108 112 117 116
49 38 48 60 65 69 70 139 143 147 123 100 93 101 107 96 96 98 106 101 83 96 97 94 91 84 74 72 60 54 49 45 42 98 118 141 102 127 119 119 106 94 55 28 3 67 129 155 96 139 157 136 165 158 162 180 187 195 217 151 140 135 132 133 133 126 116 101 95 62 130 138 147 170
47 43 46 53 60 64 67 79 116 105 102 107 113 110 99 97 93 97 118 109 110 97 88 76 69 73 74 68 66 57 52 46 46 46 53 51 123 122 120 117 118 76 22 2 10 78 119 103 355 55 141 164 160 169 159 173 177 180 178 153 119 123 122 121 127 126 114 114 103 62 9 14 276 321
40 40 43 45 62 63 57 59 68 85 104 107 104 110 110 116 123 181 128 80 95 97 94 94 90 83 73 69 64 58 55 51 45 42 44 37 59 130 123 119 107 109 79 331 4 93 87 69 56 17 57 87 132 188 154 186 176 167 173 140 111 133 116 110 102 124 109 85 50 13 352 347 337 8
42 31 32 43 51 72 73 66 60 62 68 77 87 86 99 100 119 103 84 81 90 95 95 92 85 78 71 69 67 63 61 54 48 48 40 39 38 66 98 99 87 88 74 344 348 30 78 74 60 19 19 51 79 97 173 134 109 112 116 131 138 162 134 137 126 106 65 42 334 339 321 287 19 31
45 43 42 39 47 55 63 72 72 63 60 59 70 78 82 79 86 99 107 107 85 76 79 79 78 77 71 66 63 61 60 55 55 55 51 45 48 50 60 82 93 89 54 6 24 27 65 60 55 43 25 40 343 62 62 87 95 84 61 58 79 104 113 122 128 121 173 218 250 222 240 357 84 103
55 52 50 45 51 54 54 56 61 63 65 69 66 67 70 72 70 70 66 69 70 67 68 72 74 72 72 70 65 60 59 57 59 60 58 60 60 59 58 59 71 87 73 48 37 28 54 84 52 68 33 15 17 340 48 63 78 91 64 56 63 53 65 81 78 75 59 45 98 132 102 45 305 273
61 54 47 49 53 50 53 55 57 58 55 60 61 60 60 63 63 73 70 66 68 69 68 67 67 69 72 80 77 79 78 68 65 66 67 68 66 71 70 64 58 52 57 52 47 46 48 70 54 34 23 357 24 73 42 19 38 80 101 85 70 35 26 67 84 79 73 58 18 345 185 199 272 265
69 69 58 52 53 51 45 49 53 51 48 49 50 52 51 54 61 66 73 75 77 75 75 82 81 76 80 93 96 90 87 84 78 79 82 81 83 82 76 69 60 52 48 45 53 54 55 55 50 24 3 1 49 53 59 43 2 29 62 64 33 349 34 66 101 107 92 72 61 326 313 309 185 216
56 58 62 52 48 49 47 44 48 52 45 46 47 48 48 52 55 59 69 73 76 82 80 81 88 91 87 91 113 121 116 112 114 119 114 108 100 93 88 81 64 55 49 43 41 50 53 52 46 28 35 47 58 54 40 34 2 81 100 104 104 353 143 100 71 78 68 42 1 311 288 326 241 128
51 48 49 58 54 48 49 52 50 52 45 41 42 44 45 46 47 51 60 77 81 79 80 75 76 79 81 81 83 88 91 111 139 138 128 116 116 108 101 94 90 76 66 63 51 45 44 48 55 49 60 54 52 39 16 33 7 15 43 65 76 76 25 46 40 50 26 15 344 320 344 350 338 91
48 53 48 47 45 43 41 40 41 40 44 44 41 39 38 42 44 51 58 61 68 74 84 94 77 60 59 72 71 66 64 56 50 77 103 109 118 128 124 104 116 123 119 108 103 92 72 50 74 79 70 73 69 11 25 47 48 39 25 14 34 47 52 49 34 15 11 6 352 357 350 349 337 354
51 52 52 49 48 47 49 46 42 34 35 37 40 43 40 38 41 44 43 46 41 37 48 48 55 67 71 72 68 61 52 40 37 36 54 44 91 89 92 99 113 123 128 120 113 121 120 95 80 96 88 56 45 31 21 49 41 46 33 17 37 33 24 24 30 16 5 10 347 355 349 331 328 303
56 49 52 47 47 45 46 49 47 42 40 40 36 34 32 37 39 39 39 38 37 42 48 48 54 49 55 59 63 69 65 49 44 37 58 40 48 82 89 88 85 80 93 101 83 78 147 148 115 74 80 66 61 56 50 60 65 44 40 43 44 28 13 20 5 3 2 332 340 357 329 319 313 312
52 52 57 53 52 54 57 57 54 55 57 54 55 49 49 47 46 42 45 34 42 47 53 53 54 61 67 67 60 70 71 68 47 39 37 44 38 51 70 77 67 65 76 78 93 36 31 53 131 127 84 77 46 26 43 37 68 54 46 40 52 47 10 357 14 354 352 335 355 346 323 324 332 334
53 51 56 53 45 44 51 51 51 47 48 48 52 54 50 41 38 45 36 21 55 58 60 59 58 58 61 61 60 59 56 60 63 69 61 57 55 48 45 57 85 77 64 71 71 48 38 21 24 103 144 131 95 83 348 359 36 114 99 66 49 38 4 352 3 6 3 356 351 6 12 348 334 333
53 49 50 51 48 46 49 42 50 51 50 48 51 57 62 54 43 47 47 51 57 61 69 70 63 58 55 54 52 55 61 65 56 53 76 85 87 81 68 48 41 73 90 71 69 55 42 30 20 37 84 122 134 137 173 287 356 20 117 86 44 23 27 25 22 12 355 7 1 8 353 348 320 334
67 63 63 59 54 46 49 51 44 46 50 52 54 50 48 55 57 49 34 48 51 51 50 57 54 52 56 67 76 71 67 69 69 60 55 60 62 54 74 71 50 38 30 64 76 68 54 40 24 12 51 70 78 91 177 272 25 354 21 98 79 41 44 47 25 13 350 360 12 342 346 350 326 3
80 76 73 71 61 70 82 77 72 59 47 54 54 54 48 43 40 37 37 41 50 55 51 52 51 59 66 60 55 48 44 53 57 51 46 34 41 50 48 69 58 38 37 28 71 73 66 46 32 29 64 86 92 163 194 124 116 192 26 69 121 96 54 69 24 348 10 5 330 334 325 294 322 103
70 88 83 72 54 61 84 74 56 51 48 58 67 62 62 48 40 41 52 54 50 45 47 42 40 49 51 62 75 71 67 66 67 61 50 42 36 44 44 52 103 97 62 40 74 103 87 74 43 66 83 125 189 180 137 118 112 136 76 352 19 114 123 105 30 0 317 288 320 348 312 341 349 313
141 114 122 129 135 127 100 99 82 60 53 55 54 54 59 63 54 37 32 47 64 56 52 41 51 47 40 66 94 104 99 90 80 73 72 78 57 37 36 15 30 100 107 67 68 90 127 162 200 167 50 323 348 18 28 17 80 172 221 227 284 51 144 146 168 213 224 249 310 302 316 310 299 318
164 108 97 87 84 88 93 92 91 78 43 59 73 53 50 52 50 40 46 52 81 92 90 79 59 36 47 60 68 73 91 106 111 107 112 104 94 46 33 47 59 23 79 82 81 12 203 190 155 144 189 330 356 79 66 79 43 353 340 337 197 274 258 238 242 223 188 65 2 329 347 337 351 352
36 65 69 57 38 43 90 115 113 127 107 79 73 96 87 77 73 65 8 14 250 113 141 170 189 121 97 87 90 94 85 78 74 70 61 67 112 103 79 49 11 360 81 136 165 196 257 169 192 200 154 187 94 99 101 24 267 241 268 12 326 232 260 246 248 264 310 296 243 209 213 211 264 327
33 56 64 49 29 16 11 45 54 65 82 92 111 125 142 159 181 221 196 212 212 191 207 128 69 88 93 98 83 76 92 106 103 89 76 70 63 82 109 102 16 8 29 54 22 335 17 98 351 40 87 62 94 102 139 189 304 247 161 149 341 345 320 262 287 315 306 269 272 266 258 227 216 239
23 35 45 47 45 41 24 26 55 54 51 147 169 197 184 192 185 85 38 31 48 26 36 69 55 32 23 61 82 82 67 68 138 158 148 133 132 131 110 64 46 355 74 40 37 344 2 346 38 45 102 91 61 145 171 186 223 308 89 89 3 309 309 21 351 295 268 267 250 241 248 253 258 256